Meteo Giornale » Osservazioni meteo Stati Uniti (USA) » San Jose

ore: 11:53 - Osservazioni Meteo San Jose
Lat. 37° 21' N Lon. 121° 55' W Alt. 18 metri s.l.m.

molto_nuvoloso

22 °C

Molto Nuvoloso

Temp. 24 Ore

17 °C

22 °C

Nord

5.5 Km/h

Dew point 8 °C

Umidità 40 %

Visibilità  10 Km

Il sole sorge alle ore 06:38

Il sole tramonta alle ore 19:36

Data e Ora Cielo e Fenomeni T °C DP °C Um. % Pres. hPa Vis. km Vento km/h
Oggi h: 11:53 molto_nuvoloso Molto Nuvoloso 22 8 40 1017 10 N 5.5
Oggi h: 10:53 molto_nuvoloso Molto Nuvoloso 21 8 43 1017 10 S/SO 11.1
Oggi h: 09:53 molto_nuvoloso Molto Nuvoloso 19 8 48 1016 10 N 5.5
Oggi h: 08:53 coperto Coperto 18 8 51 1016 10 O/SO 11.1
Oggi h: 07:53 coperto Coperto 17 8 55 1016 10 S/SO 11.1
Oggi h: 06:53 coperto Coperto 17 8 55 1015 10 S/SO 9.3
Oggi h: 05:53 coperto Coperto 17 9 59 1015 10 N 5.5
Oggi h: 04:53 coperto Coperto 17 9 59 1014 11 N 5.5
Oggi h: 03:53 coperto Coperto 17 9 59 1015 11 O/NO 7.4
Oggi h: 02:53 coperto Coperto 17 9 59 1014 11 O 11.1
Oggi h: 01:53 coperto Coperto 17 9 59 1014 11 NO 9.3
Oggi h: 00:53 coperto Coperto 17 10 63 1014 11 NO 14.8
Ieri h: 23:53 coperto Coperto 17 10 63 1014 10 NO 14.8
Ieri h: 22:53 coperto Coperto 17 10 63 1015 10 NO 14.8
Ieri h: 21:53 coperto Coperto 17 11 67 1014 10 NO 13
Ieri h: 20:53 nuvoloso Nuvoloso 17 11 67 1014 10 NO 18.5
Ieri h: 19:53 nuvoloso Nuvoloso 18 11 63 1013 10 N/NO 20.3
Ieri h: 19:25 nuvoloso Nuvoloso 18 12 67 1013 10 NO 24
Ieri h: 18:53 molto_nuvoloso Molto Nuvoloso 18 12 67 1013 10 N/NO 20.3
Ieri h: 17:53 nuvoloso Nuvoloso 20 12 59 1013 10 N/NO 24
Ieri h: 16:53 nuvoloso Nuvoloso 21 12 56 1013 10 N/NO 24
Ieri h: 15:53 nuvoloso Nuvoloso 22 12 53 1013 10 N/NO 24
Ieri h: 14:53 nuvoloso Nuvoloso 22 12 53 1014 10 N/NO 24
Ieri h: 13:53 nuvoloso Nuvoloso 22 12 53 1014 10 NO 16.7
Ieri h: 12:53 nuvoloso Nuvoloso 21 11 52 1014 10 N 9.3
Ieri h: 12:40 nuvoloso Nuvoloso 21 11 52 1014 10 N 5.5